This is the latest recevied weather packets stored in our database for station/object DL5DI-H. If no packets are shown the sender has not sent any weather packets the latest 10 day(s).
| Time | Temp. | Humidity | Pressure | Rain* | Wind** | Luminosity | Snow |
|---|---|---|---|---|---|---|---|
| 1788204600 | 18.89° C | 76% | 1018 hPa | 0 mm | - | - | - |
| 1788204002 | 18.89° C | 75% | 1017.9 hPa | 0 mm | - | - | - |
| 1788203402 | 18.89° C | 74% | 1017.7 hPa | 0 mm | - | - | - |
| 1788202802 | 18.89° C | 74% | 1017.5 hPa | 0 mm | - | - | - |
| 1788202202 | 19.44° C | 72% | 1017.4 hPa | 0 mm | - | - | - |
| 1788201603 | 19.44° C | 71% | 1017.2 hPa | 0 mm | - | - | - |
| 1788201001 | 19.44° C | 70% | 1017.1 hPa | 0 mm | - | - | - |
| 1788200400 | 20° C | 69% | 1016.9 hPa | 0 mm | - | - | - |
| 1788199802 | 20° C | 69% | 1016.6 hPa | 0 mm | - | - | - |
| 1788199202 | 20.56° C | 68% | 1016.5 hPa | 0 mm | - | - | - |
| 1788198602 | 20.56° C | 67% | 1016.4 hPa | 0 mm | - | - | - |
| 1788198002 | 21.11° C | 67% | 1016.2 hPa | 0 mm | - | - | - |
| 1788197402 | 21.11° C | 67% | 1016.1 hPa | 0 mm | - | - | - |
| 1788196800 | 21.11° C | 69% | 1016.1 hPa | 0 mm | - | - | - |
| 1788196201 | 20.56° C | 71% | 1016 hPa | 0 mm | - | - | - |
| 1788195602 | 20.56° C | 71% | 1016 hPa | 0 mm | - | - | - |
| 1788195002 | 20.56° C | 70% | 1016 hPa | 0 mm | - | - | - |
| 1788194402 | 20.56° C | 70% | 1015.9 hPa | 0 mm | - | - | - |
| 1788193801 | 21.11° C | 68% | 1015.7 hPa | 1.02 mm | - | - | - |
| 1788193202 | 21.67° C | 69% | 1015.5 hPa | 1.52 mm | - | - | - |
| 1788192603 | 21.67° C | 70% | 1015.5 hPa | 1.52 mm | - | - | - |
| 1788192013 | 21.67° C | 69% | 1015.5 hPa | 1.52 mm | - | - | - |
| 1788191402 | 21.67° C | 72% | 1015.3 hPa | 1.52 mm | - | - | - |
| 1788190802 | 22.22° C | 62% | 1015.1 hPa | 0.25 mm | - | - | - |
| 1788190201 | 22.22° C | 62% | 1015.1 hPa | 0.25 mm | - | - | - |
* Rain latest hour (hover to see other rain measurements)
** Current wind speed in m/s (hover to see current wind gust speed)